GW4990 Weather Reports


time (UTC)temp
F
wind
direction
speed
knots
gust
knots
rain 1hr
in
rain 24hr
in
rain mn
in
humidity
%
barometer
mb
20260504081805 96 256 0.0 0.0 0.00 0.00 0.00 60 1013.0
20260504081304 96 178 0.0 0.0 0.00 0.00 0.00 60 1013.0
20260504080804 97 196 0.0 0.0 0.00 0.00 0.00 59 1013.0
20260504080304 96 182 0.0 0.0 0.00 0.00 0.00 59 1013.0
20260504070305 96 113 0.0 0.0 0.00 0.00 0.00 59 1014.0
20260504050304 89 173 0.0 0.0 0.00 0.00 0.00 73 1016.0
20260504045804 89 190 0.0 0.0 0.00 0.00 0.00 74 1016.0
20260504045304 88 177 0.0 0.0 0.00 0.00 0.00 75 1016.0
20260504044805 88 190 0.0 0.0 0.00 0.00 0.00 75 1016.0
20260504044304 87 180 0.0 0.0 0.00 0.00 0.00 76 1016.0
20260504043804 87 173 0.0 0.0 0.00 0.00 0.00 76 1016.0
20260504043305 87 218 0.0 0.0 0.00 0.00 0.00 75 1016.0
20260504042805 87 180 0.0 0.0 0.00 0.00 0.00 75 1016.0
20260504042304 87 180 0.0 0.0 0.00 0.00 0.00 74 1016.0
20260504041805 87 177 0.0 0.0 0.00 0.00 0.00 74 1016.0
20260504041305 86 202 0.0 0.0 0.00 0.00 0.00 76 1017.0
20260504040804 86 189 0.0 0.0 0.00 0.00 0.00 78 1017.0
20260504040304 87 199 0.0 0.0 0.00 0.00 0.00 75 1017.0
20260504035804 87 67 0.0 0.0 0.00 0.00 0.00 75 1017.0
20260504035305 87 196 0.0 0.0 0.00 0.00 0.00 77 1017.0
20260504034804 88 140 0.0 0.0 0.00 0.00 0.00 74 1017.0
20260504034304 88 103 0.0 0.0 0.00 0.00 0.00 74 1016.0
20260504033803 88 213 0.0 0.0 0.00 0.00 0.00 75 1016.0
20260504033304 87 106 0.0 0.0 0.00 0.00 0.00 76 1016.0
20260504032804 87 56 0.0 0.0 0.00 0.00 0.00 77 1016.0
20260504032306 87 137 0.0 0.0 0.00 0.00 0.00 77 1016.0
20260504031804 87 51 0.0 0.0 0.00 0.00 0.00 77 1016.0
20260504031304 87 115 0.0 0.0 0.00 0.00 0.00 78 1016.0
20260504030804 87 139 0.0 0.0 0.00 0.00 0.00 78 1016.0
20260504030304 87 171 0.0 0.0 0.00 0.00 0.00 78 1016.0
20260504025325 87 105 0.0 0.0 0.00 0.00 0.00 78 1016.0
20260504024804 87 187 0.0 0.0 0.00 0.00 0.00 78 1016.0
20260504024305 86 156 0.0 0.0 0.00 0.00 0.00 78 1016.0
20260504023804 86 112 0.0 0.0 0.00 0.00 0.00 77 1016.0
20260504023304 86 123 0.0 0.0 0.00 0.00 0.00 78 1016.0
20260504022804 86 107 0.0 0.0 0.00 0.00 0.00 78 1015.0
20260504022305 86 230 0.0 0.0 0.00 0.00 0.00 78 1015.0
20260504021805 86 135 0.0 0.0 0.00 0.00 0.00 78 1015.0
20260504021304 86 81 0.0 0.0 0.00 0.00 0.00 78 1015.0
20260504020804 85 102 0.0 0.0 0.00 0.00 0.00 78 1015.0
20260504020304 85 87 0.0 0.0 0.00 0.00 0.00 79 1015.0
20260504015804 85 124 0.0 0.0 0.00 0.00 0.00 80 1015.0
20260504015307 85 63 0.0 0.0 0.00 0.00 0.00 80 1015.0
20260504014804 84 41 0.0 0.0 0.00 0.00 0.00 81 1015.0
20260504014304 84 70 0.0 0.0 0.00 0.00 0.00 82 1015.0
20260504013804 84 184 0.0 0.0 0.00 0.00 0.00 82 1015.0
20260504013304 84 128 0.0 0.0 0.00 0.00 0.00 82 1015.0
20260503181304 89 57 0.0 0.0 0.00 0.00 0.00 68 1015.0
20260503180805 89 78 0.0 0.0 0.00 0.00 0.00 68 1015.0
20260503180304 88 0 0.0 0.0 0.00 0.00 0.00 68 1015.0
20260503175804 89 62 0.0 0.0 0.00 0.00 0.00 68 1015.0
20260503175305 89 10 0.0 0.0 0.00 0.00 0.00 69 1015.0
20260503174804 89 31 0.0 0.0 0.00 0.00 0.00 71 1015.0
20260503174305 89 0 0.0 0.0 0.00 0.00 0.00 78 1015.0
20260503173804 89 227 0.0 0.0 0.00 0.00 0.00 79 1015.0
20260503173304 89 183 0.0 0.0 0.00 0.00 0.00 79 1014.0
20260503172805 89 175 0.0 0.0 0.00 0.00 0.00 78 1014.0
20260503172305 89 187 0.0 0.0 0.00 0.00 0.00 78 1014.0
20260503171804 89 179 0.0 0.0 0.00 0.00 0.00 77 1015.0
20260503171304 89 167 0.0 0.0 0.00 0.00 0.00 77 1015.0
20260503170804 89 188 0.0 0.0 0.00 0.00 0.00 77 1015.0
20260503170304 89 203 0.0 0.0 0.00 0.00 0.00 77 1015.0
20260503150805 89 47 0.0 0.0 0.00 0.00 0.00 63 1013.0
20260503150304 89 117 0.0 0.0 0.00 0.00 0.00 63 1013.0
20260503140304 90 185 0.0 0.0 0.00 0.00 0.00 66 1012.0
20260503131304 91 200 0.0 0.0 0.00 0.00 0.00 69 1012.0
20260503130804 92 185 0.0 0.0 0.00 0.00 0.00 68 1012.0
20260503130306 92 188 0.0 0.0 0.00 0.00 0.00 68 1012.0
20260503110804 95 76 0.0 0.0 0.00 0.00 0.00 63 1010.0
20260503110305 96 123 0.0 0.0 0.00 0.00 0.00 61 1010.0